FREGAT DEB, 45963

Orbit data source: Space-Track

FREGAT DEB, 45963 is space debris in LEO originally from a launch on Mon, 18 Jul 2011 UTC launched from the Tyuratam Missile And Space Complex (TTMTR). Debris objects in space refer to the collection of defunct objects orbiting the Earth. Examples of debris include non-operational satellites, rocket bodies, and fragments generated from explosions, collisions, or faulty payload assembly.

Loading next visibility...
Identifier
45963, 2011-037FU
Orbit
LEO
Country
Flag of CISCIS
Related business
Manufacturer
Lavochkin
Mission
Spacecraft
Bus & Motor
Unknown
Mass
Unknown
Launch date (UTC)
2011-07-18 (14 years ago)
Launch vehicle
Unknown
Launch site
Tyuratam Missile And Space Complex (TTMTR)
Object type
Payload
Rocket body
Debris
Shape & HBR
Unknown shape, 0.1 m
Radar Cross Section
Small (<0.1 m²)

Expand to show TLE details & history
Last TLE update: 3 days ago

TLE from 3 days ago
0 FREGAT DEB
1 45963U 11037FU  25310.48129619 -.00009794  00000-0 -33596-1 0  9998
2 45963  51.3701 348.6900 1924654 188.2486 168.1716 10.31778297196577
Epoch: 2025-11-06T11:33Z
TLE epoch observation values (Epoch: 2025-11-06T11:33:03.990Z)
Latitude
-0.00005°
Longitude
129.48434°
Altitude
4,224.78 km
Speed
5.521 km/s
True Right ascension
23h 14m 45s
True Declination
0° 00' 00"
Sunlit
Object was in daylight at epoch
Visualization orbit readout
Latitude
Unknown
Longitude
Unknown
Altitude
Unknown
Speed
Unknown
Apparent Right ascension
Unknown
Apparent Declination
Unknown
Sunlit
N/A
Visualization observer readout
Local Sidereal Time
18:24:19
Azimuth
Unknown
Elevation
Unknown
Doppler factor
Unknown
Orbital elements
Apogee altitude
4,250.523 km
Perigee altitude
819.565 km
Semi-major axis
8,913.181 km
Eccentricity
0.19247
Inclination
51.3701°
RAAN
348.69°
Arg. of periapsis
188.2486°
True anomaly
171.82404°
Mean anomaly
168.1716°
Eccentric anomaly
170.07271°
Mean motion
2.57925 °/min
Orbital period
139.58 mins
BSTAR
-0.033596
Loading maneuver chart data...
Computing Atmospheric mass density...
Loading historical data...
Loading historical data...
Loading historical data...
Loading historical data...
Loading historical data...
Loading historical data...
Loading historical data...

Documentation

Showing up to 5 results
|